Location: Bucquoy
(50.1391°N, 2.7097°E)
Time: 03:34:01
(UTC+00:00)

Cosmos 1766 - Pass Details

Date: 06 May 2021
Orbit: 519 x 544 km, 82.5° (Epoch: 22 June)

Event Time Altitude Azimuth Distance (km) Brightness Sun altitude
Rises 01:20:50 0° 347° (NNW) 2,718 7.7 -20.1°
Reaches altitude 10° 01:23:01 10° 345° (NNW) 1,818 6.6 -19.9°
Maximum altitude 01:26:58 65° 264° (W) 597 3.3 -19.7°
Enters shadow 01:27:32 56° 218° (SW) 644 3.2 -19.6°
